Theta_e
329 329 332 332 332 332 332 332 332 332 333 334 332 331 333 333 333 334 333 332 331 330 330 330 331 331 331 330 329 328 330 330 331 330 330 330 330 330 330 330 330 330 330 331 330 331 332 331 331 331 331 332 332 332 331 332 332 330 330 330 329 330 330 330 329 329 328 328 327 326 325 324 322 322 322 322 322 323 324 325 325 326 326 326 327
329 329 330 331 332 331 331 331 332 331 332 333 331 331 332 331 332 332 331 330 329 329 329 328 328 329 329 330 329 327 328 328 329 329 329 329 330 329 329 328 328 328 328 328 328 329 330 329 330 330 331 331 331 331 330 331 331 329 328 330 330 330 330 329 329 329 328 329 327 327 327 325 322 322 324 324 322 320 322 325 325 325 325 326 327
331 331 329 329 330 331 331 331 331 331 331 331 331 331 330 330 330 329 329 329 328 328 327 327 327 328 329 329 329 327 327 327 327 328 328 328 328 327 327 326 326 327 327 327 326 327 329 329 329 330 330 330 330 330 330 330 329 327 327 329 329 329 328 328 328 328 327 328 327 327 327 325 323 323 324 324 322 320 321 324 324 324 325 326 326
332 332 330 328 328 330 331 330 330 331 330 330 329 330 329 329 328 327 328 327 327 326 325 325 326 328 329 329 328 327 327 327 326 326 326 326 325 324 324 324 325 326 326 326 325 325 328 329 329 330 330 330 330 330 331 331 329 326 328 329 328 328 326 326 327 327 327 327 326 325 323 323 325 325 324 323 321 321 321 322 323 324 324 323 323
331 331 331 329 327 328 330 330 330 329 329 329 329 329 328 327 327 326 326 325 325 324 324 324 324 326 328 329 328 327 326 326 324 324 323 323 322 322 322 321 323 324 324 326 325 324 327 329 329 329 329 330 329 329 330 331 330 328 328 328 327 327 326 325 326 326 326 327 326 325 324 324 326 325 324 324 322 322 322 321 322 324 322 320 321
330 329 330 329 327 328 330 330 330 329 330 329 327 328 327 327 327 325 325 324 324 324 323 323 322 323 326 328 327 325 324 324 323 322 322 322 321 321 321 321 322 323 324 326 326 324 326 327 327 327 328 328 328 328 329 330 330 329 328 327 326 326 325 324 325 327 327 326 326 326 325 326 327 324 324 326 324 323 323 323 323 324 322 321 321
331 329 329 329 326 327 330 330 330 329 329 329 328 328 327 326 325 324 324 324 324 324 322 322 321 323 325 325 325 325 324 323 322 322 322 321 321 321 320 320 321 322 323 324 324 325 325 324 324 324 325 326 326 328 329 329 329 329 328 327 327 326 325 325 325 326 327 327 326 325 325 325 325 325 326 327 327 326 324 324 324 325 325 324 324
332 330 330 329 326 327 329 330 330 330 330 330 329 329 328 325 323 322 322 324 324 323 323 322 322 324 326 325 325 324 323 321 320 321 321 321 321 321 320 319 319 320 321 322 323 324 323 321 321 322 323 325 325 326 327 328 328 328 328 328 327 326 326 326 325 326 326 326 326 326 326 325 324 325 325 325 328 329 326 322 320 321 323 322 322
331 330 330 328 326 327 330 330 330 330 331 331 330 329 327 323 319 321 322 324 325 323 323 323 323 324 326 325 323 321 319 318 319 320 321 320 320 320 319 319 318 319 319 321 322 323 321 320 320 321 323 324 325 325 325 325 325 325 326 327 327 327 326 326 326 326 327 327 327 326 326 326 325 325 325 323 325 328 327 323 317 315 317 316 316
330 330 329 326 325 327 329 330 330 330 331 331 330 330 328 322 318 320 324 325 325 324 324 324 323 324 324 323 321 319 318 318 319 321 320 320 320 320 319 318 318 318 318 318 320 320 320 319 320 320 322 323 323 324 323 323 322 322 324 324 325 326 325 326 325 325 325 325 326 326 326 326 324 322 323 324 323 322 323 320 313 312 315 314 312
330 332 328 324 324 326 328 329 330 330 330 331 331 329 329 325 319 320 324 326 325 324 324 324 323 323 323 321 320 318 317 318 320 322 320 320 320 319 319 318 317 317 316 317 318 319 319 318 319 320 320 321 322 322 322 321 321 321 322 323 323 322 322 322 322 323 324 324 324 325 325 323 320 317 317 319 318 317 317 316 312 312 313 312 312
330 332 330 326 326 326 327 329 329 329 330 331 331 330 329 327 324 322 324 324 323 322 323 323 322 322 322 320 319 318 317 317 319 320 320 320 319 319 318 317 316 315 315 316 317 316 316 315 315 318 320 320 320 321 321 321 321 321 322 322 320 318 316 316 318 320 322 322 320 320 319 317 315 314 313 313 313 313 313 313 311 311 312 311 311
330 331 330 330 331 326 325 328 328 329 330 330 331 331 330 329 326 324 323 323 322 322 322 322 321 321 321 320 319 318 317 316 317 318 320 320 319 319 317 314 314 314 314 314 313 313 313 311 310 314 318 318 318 319 319 319 320 320 321 320 318 315 314 314 315 316 317 316 314 313 313 313 313 312 312 312 312 312 311 311 310 311 312 311 311
330 330 331 332 329 325 324 327 327 328 329 330 331 331 330 329 326 325 323 323 322 322 322 322 321 320 320 320 318 318 318 317 316 316 318 320 319 319 315 312 312 313 313 313 312 311 311 310 309 312 313 313 313 313 314 314 314 315 317 318 317 314 312 313 314 313 313 312 311 311 311 311 311 311 311 311 312 311 311 310 310 310 310 310 310
331 332 333 331 326 323 325 326 327 327 329 329 330 330 331 328 326 325 323 322 321 321 321 322 320 319 320 319 317 318 318 317 316 314 315 318 319 317 314 311 311 313 313 312 312 311 310 310 311 312 311 310 308 307 307 306 306 307 309 311 311 309 308 310 311 311 310 309 308 307 308 307 307 306 306 308 310 311 310 309 309 311 312 311 309
332 334 336 332 325 323 325 325 326 327 328 329 329 329 331 328 326 325 324 322 320 320 321 321 319 318 319 319 318 319 318 317 317 315 314 316 318 316 313 310 311 312 312 312 312 311 310 311 312 312 311 310 306 305 304 304 303 303 303 304 304 303 305 307 309 309 307 305 304 304 304 304 303 303 304 306 309 309 309 308 308 309 313 314 313
331 335 338 333 325 324 325 325 326 327 327 328 329 329 330 328 325 325 324 322 320 320 319 318 319 318 318 319 319 319 319 318 318 316 314 316 317 316 313 311 312 311 311 312 312 311 310 311 311 311 312 311 309 306 305 303 303 303 303 303 302 302 302 305 306 306 305 304 305 305 305 305 305 306 306 307 308 308 307 307 308 308 309 312 315
328 331 333 329 324 324 326 325 325 326 326 327 328 329 329 328 326 325 324 323 321 320 319 318 319 318 318 320 319 319 319 319 319 316 314 316 318 317 313 312 312 311 310 311 311 311 311 311 311 311 312 312 311 310 307 305 303 304 304 303 303 302 303 304 306 306 305 306 306 306 306 307 308 308 308 308 308 308 308 308 308 308 309 310 311
328 329 331 330 325 324 327 326 325 326 326 326 327 327 328 327 326 325 323 322 321 320 320 318 319 319 319 321 320 320 320 318 318 318 316 316 317 316 313 311 312 311 310 311 311 310 310 311 311 310 311 312 312 312 311 308 305 304 306 306 305 304 303 305 306 307 307 308 307 306 305 305 307 308 309 308 307 307 308 308 308 309 308 309 308
327 326 328 330 324 324 328 327 327 326 324 325 325 325 326 326 326 324 323 321 320 320 320 319 319 319 319 320 319 320 319 314 315 319 318 317 316 315 313 311 312 311 309 310 312 311 309 309 310 310 310 311 311 311 311 310 307 306 308 308 308 308 306 305 306 307 307 308 308 307 306 305 306 307 308 308 307 307 307 307 308 308 307 307 306
325 324 328 327 322 323 327 327 327 326 324 324 324 324 325 325 325 324 323 322 320 320 320 320 320 319 317 318 319 320 317 312 314 319 319 318 317 315 314 314 313 311 310 311 312 312 310 308 309 310 310 310 310 311 311 310 309 309 309 308 309 309 308 306 307 306 306 308 308 307 309 308 306 306 306 306 306 306 306 306 307 307 306 305 305
323 323 326 323 318 319 322 323 324 324 324 324 324 324 324 324 325 324 324 323 321 320 320 320 321 319 317 319 320 319 317 314 315 319 319 319 318 315 315 316 315 313 311 310 310 312 312 308 307 307 309 310 310 309 309 309 309 310 311 310 309 309 308 307 308 308 307 307 308 308 309 308 308 307 305 304 305 306 306 306 306 306 306 305 305
321 322 321 317 315 318 320 322 323 322 322 323 323 323 323 323 324 324 324 324 323 321 321 320 320 318 318 319 320 320 320 318 318 319 319 319 319 317 316 317 317 315 314 313 312 311 313 311 308 306 307 308 308 307 308 308 308 308 309 309 310 309 308 308 309 310 309 307 307 307 307 307 307 308 307 306 305 305 306 306 307 307 306 305 304
321 320 317 314 315 317 319 321 322 322 321 321 322 322 322 322 323 324 324 324 323 322 321 320 319 318 318 319 319 320 320 320 320 320 319 318 318 318 317 317 318 317 316 315 314 313 314 314 311 308 306 307 307 307 308 308 308 308 308 309 309 309 309 308 308 309 310 310 309 308 307 307 306 307 307 307 306 305 305 306 306 306 306 305 303
321 320 319 318 317 316 316 319 321 322 321 321 322 322 322 322 323 324 324 324 323 322 321 320 318 317 318 320 320 320 320 320 320 320 320 319 318 318 318 318 318 318 317 316 315 315 316 315 314 311 309 308 309 308 309 309 309 309 309 309 309 310 310 309 308 309 310 310 310 310 310 308 308 308 308 307 306 305 305 306 306 305 305 303 301
320 321 322 321 319 315 315 318 321 322 322 321 322 322 322 322 323 323 323 323 323 322 321 320 318 318 319 321 322 321 321 321 320 320 320 319 319 318 318 318 318 318 317 316 317 316 316 316 316 315 313 313 313 312 312 312 311 311 311 311 311 310 311 311 310 310 311 311 311 311 311 310 309 309 309 308 307 307 306 306 305 305 304 302 300
320 321 322 322 321 317 314 316 320 321 322 322 322 322 323 322 323 323 323 323 322 321 321 321 320 320 320 321 322 321 321 321 321 321 320 320 319 318 318 318 318 318 318 317 317 318 317 317 317 317 316 315 315 315 315 315 315 315 314 313 313 313 312 312 312 311 311 312 311 311 311 311 310 310 310 309 308 307 307 306 305 305 304 302 300
317 318 319 320 322 319 313 313 316 318 320 322 323 323 323 323 323 323 323 322 322 321 321 321 321 321 321 321 321 321 321 321 321 320 320 320 318 318 318 318 318 318 318 318 318 318 318 317 317 318 317 316 316 317 317 317 317 317 317 316 316 316 314 313 314 313 312 312 312 312 311 310 310 310 309 309 308 307 307 306 305 305 303 302 301
317 318 317 317 319 316 312 312 313 315 317 320 321 322 322 323 323 323 323 322 322 321 321 321 321 321 321 321 320 321 320 321 321 320 320 320 319 318 319 318 319 319 318 318 318 318 318 317 317 317 317 317 317 318 318 318 318 318 319 318 318 318 317 316 316 315 313 313 313 313 312 311 311 310 309 309 308 307 306 306 305 304 303 302 301
315 315 315 315 315 310 308 310 310 311 313 316 318 321 321 322 323 322 323 322 322 321 321 321 321 321 321 320 320 320 320 320 320 320 320 320 320 320 320 319 319 319 318 318 318 318 318 317 317 318 317 317 317 318 318 318 318 318 318 318 318 319 318 318 317 316 314 315 314 314 312 311 310 310 310 309 308 307 306 306 305 303 302 301 301
309 309 309 311 310 306 304 307 307 308 310 312 314 317 318 319 320 320 321 321 322 321 321 321 321 321 321 321 321 321 320 320 320 320 320 320 320 319 319 319 319 319 318 319 320 319 319 318 318 318 317 317 317 318 318 318 318 318 318 318 319 319 319 319 318 318 316 316 316 315 313 312 310 310 309 308 307 307 305 305 303 303 302 301 301
308 307 307 307 307 305 305 305 305 306 308 308 309 311 313 316 317 317 318 319 320 321 320 320 320 320 320 320 320 320 320 319 320 320 319 320 320 319 318 318 318 318 318 319 319 319 318 318 318 317 318 319 319 319 320 320 321 320 320 320 320 320 319 319 318 318 317 316 315 314 314 312 310 309 308 308 306 306 304 303 303 302 301 301 301
310 309 309 307 306 305 305 305 305 305 306 307 307 308 309 310 311 312 313 314 315 316 316 317 317 318 319 319 319 319 319 319 319 319 319 319 319 318 317 317 317 318 318 318 318 318 318 318 318 318 319 320 321 321 320 319 319 319 320 320 321 321 320 320 318 317 316 315 314 313 313 311 309 308 307 306 305 304 303 302 302 302 301 301 300
308 310 310 307 305 304 304 305 305 305 305 306 306 306 307 307 308 309 309 310 310 311 311 312 313 314 316 317 317 318 319 319 319 319 319 319 319 319 319 318 318 319 319 318 318 318 318 319 319 320 320 321 320 318 316 315 315 316 317 318 319 320 320 320 319 318 316 315 313 312 311 309 308 307 306 306 304 303 303 302 302 301 301 300 300
308 309 307 305 306 305 304 304 305 305 305 306 306 306 306 306 307 308 308 308 308 308 308 308 309 309 312 314 315 315 317 317 317 317 317 316 315 315 315 315 315 316 317 317 317 317 318 319 320 320 321 320 318 316 315 314 314 314 315 315 316 318 319 319 318 316 314 313 312 311 309 308 307 306 305 304 303 303 303 302 302 301 301 300 300
306 305 303 302 304 305 306 305 305 305 305 306 307 307 306 306 306 307 308 308 308 308 308 308 308 307 309 312 313 312 313 314 313 313 314 311 310 310 310 310 312 313 315 315 315 315 316 317 318 319 319 319 317 316 315 315 315 314 313 314 315 316 317 316 315 313 311 310 309 308 307 306 306 305 304 303 303 303 303 302 301 301 300 300 299
300 300 299 299 300 302 304 305 304 304 304 305 306 306 306 306 306 306 306 307 307 307 307 308 308 308 308 310 310 310 310 311 310 310 310 309 308 309 309 309 310 311 312 313 314 314 314 314 315 316 316 316 316 316 315 315 315 314 313 313 314 315 314 312 311 309 308 307 306 305 306 305 304 303 303 303 302 302 301 301 300 300 299 298 298
298 298 298 298 299 299 300 301 302 302 302 302 304 306 306 306 306 306 305 305 306 306 306 306 308 308 309 309 309 309 309 309 309 308 307 307 307 307 308 308 308 309 310 311 312 313 313 313 314 314 314 314 315 315 315 315 315 314 313 313 313 312 311 309 308 306 305 305 304 304 304 303 303 302 302 301 301 301 300 300 299 299 298 297 297
298 297 297 298 298 298 299 299 299 299 299 299 301 304 305 305 305 306 305 306 306 306 305 306 306 306 307 308 308 309 309 309 309 307 305 305 305 306 306 307 306 306 308 309 310 311 312 313 313 314 314 314 314 314 315 314 314 313 312 312 312 311 309 308 306 306 304 304 304 303 302 302 301 301 301 300 300 300 299 299 298 298 297 296 296
297 298 298 298 298 298 298 298 298 298 298 299 299 301 302 303 303 303 304 305 306 306 306 306 306 306 306 306 307 308 308 309 308 307 306 306 306 306 306 306 305 305 305 307 308 308 308 309 310 312 313 314 314 314 314 313 312 311 311 311 310 309 308 306 305 305 304 303 302 302 301 301 300 300 299 299 299 298 298 297 297 296 295 295 294
298 298 298 298 298 298 298 298 298 298 298 298 299 299 300 301 301 301 302 302 303 304 304 304 305 306 306 306 306 307 308 309 308 308 308 307 307 307 306 306 306 306 305 305 305 304 304 304 305 308 312 313 313 312 312 311 310 309 308 308 307 307 306 305 304 303 302 302 301 300 299 299 298 298 298 297 297 297 296 295 295 294 294 293 293
297 298 298 298 298 298 298 298 298 299 298 298 298 299 299 299 299 300 300 301 301 302 302 303 304 305 306 306 306 306 307 307 307 307 307 306 307 307 307 307 307 307 307 306 305 305 304 304 304 307 310 312 312 310 310 309 308 307 306 306 305 305 304 304 303 302 301 300 299 298 297 297 297 297 297 296 295 295 294 294 293 293 293 292 292
297 297 297 297 298 298 298 299 299 298 299 299 298 299 299 299 299 299 300 300 300 301 301 302 303 304 305 305 305 305 306 305 305 305 305 305 305 305 307 308 308 308 308 307 307 306 306 306 306 307 309 310 309 308 307 307 306 305 305 304 304 304 303 302 302 301 300 298 297 297 297 296 296 296 295 295 294 293 293 293 293 293 292 292 291
296 297 297 297 297 297 298 299 299 299 299 299 299 298 299 299 299 299 300 300 300 301 301 301 302 303 303 303 303 304 305 305 305 305 305 304 305 304 305 307 308 308 308 308 307 307 306 307 307 308 309 309 308 306 305 304 304 303 303 303 303 303 301 300 300 299 298 297 297 296 296 296 295 295 294 294 293 293 293 292 292 292 291 291 291
296 297 297 297 296 297 297 297 298 299 299 299 299 299 298 299 299 299 299 300 300 301 301 301 301 302 302 303 303 304 304 305 305 305 305 305 305 304 304 305 306 307 307 307 307 306 306 307 307 307 307 305 302 301 302 301 301 301 301 301 301 300 299 298 297 296 296 296 296 295 295 294 294 293 293 293 293 292 291 291 291 291 290 290 290
295 295 295 295 295 295 295 296 296 297 298 298 299 298 298 299 299 299 299 299 300 301 301 301 301 301 301 303 303 304 304 304 304 305 305 305 305 305 304 304 305 305 306 306 306 306 306 306 306 306 305 301 297 296 298 298 298 299 299 298 298 297 296 295 295 295 295 295 295 294 294 293 293 292 292 292 291 291 291 290 290 290 290 290 289
293 293 293 293 293 293 293 294 295 296 297 297 298 298 299 299 299 299 299 299 299 300 300 300 301 301 301 302 303 304 305 304 304 305 304 304 305 304 304 304 304 304 305 306 306 306 305 306 306 306 305 304 300 296 296 296 296 296 297 296 295 295 294 294 295 295 294 294 293 293 293 292 292 292 291 291 291 290 290 290 289 289 289 289 289
291 291 291 291 291 291 292 292 293 294 295 295 296 297 298 298 299 299 299 299 299 300 300 300 300 300 301 301 302 303 303 304 303 304 303 304 304 303 303 304 304 304 304 305 305 305 305 306 307 306 305 305 301 297 297 298 297 296 296 295 294 295 295 295 294 294 293 293 292 292 292 292 291 291 291 290 290 289 289 289 289 289 289 288 288
290 290 290 290 290 290 291 291 292 292 293 294 295 295 296 297 298 298 299 299 299 300 300 300 300 300 300 300 300 301 302 302 302 303 303 303 303 303 303 304 303 304 304 304 305 306 306 307 308 307 305 304 302 300 300 299 296 295 295 295 295 295 295 294 293 293 292 292 292 292 292 291 291 290 290 289 289 289 289 289 289 288 288 288 288
289 289 289 289 289 289 290 290 291 291 292 293 293 294 295 296 296 297 297 298 298 299 299 300 300 300 300 300 300 300 300 301 301 302 303 303 303 303 303 303 304 304 304 305 306 307 308 308 308 307 306 305 304 303 301 296 294 293 295 295 295 295 294 293 292 292 292 292 292 291 291 290 290 289 289 289 289 289 289 288 288 288 288 288 288
289 289 289 289 289 289 289 290 290 290 291 291 292 292 293 293 294 295 296 296 296 298 299 299 300 300 300 300 300 300 300 300 300 301 302 302 303 303 303 304 305 305 306 307 308 308 308 308 307 306 305 304 303 302 299 295 293 293 295 295 295 294 292 292 292 292 292 292 291 291 290 289 289 289 289 289 289 288 288 288 288 288 288 288 288
Wind_Speed
7 14 18 18 18 18 16 16 18 18 20 23 23 23 24 23 22 22 21 20 20 20 19 19 18 15 13 11 9 8 8 6 5 4 3 2 2 3 4 4 3 4 6 6 5 5 6 7 8 8 10 11 11 12 12 13 14 12 12 13 14 14 13 11 9 8 8 6 5 4 3 4 5 4 3 3 4 3 5 7 9 11 8 6 5
5 10 13 17 18 18 17 17 19 20 22 26 26 25 24 24 24 24 23 22 22 21 20 20 18 16 14 12 11 10 9 8 8 6 5 4 4 3 3 4 4 5 5 4 3 3 4 4 5 7 8 9 9 9 10 13 14 13 12 14 14 13 13 12 11 8 4 3 3 2 1 1 2 3 3 3 3 4 4 4 5 7 8 7 7
6 7 10 15 17 19 20 19 20 22 25 27 28 27 26 26 26 26 25 23 21 20 20 19 17 16 15 14 13 12 10 9 8 8 6 5 4 2 2 1 2 4 5 5 4 3 3 3 4 4 5 6 7 8 10 12 14 13 13 14 14 13 11 12 12 9 4 3 4 2 1 1 1 2 3 3 3 4 5 5 4 5 5 4 5
8 8 8 12 16 19 22 21 21 23 25 27 28 29 29 28 27 27 25 23 21 19 18 17 16 16 15 15 15 13 11 10 8 7 7 6 5 4 3 3 3 4 4 5 4 4 3 4 5 5 5 5 6 8 11 12 12 12 13 14 14 13 10 9 11 9 6 5 4 2 1 2 1 1 2 2 3 4 4 4 4 3 3 2 2
11 11 11 11 13 18 22 23 23 24 26 29 30 31 31 30 28 27 25 23 21 20 18 16 16 17 17 16 14 13 13 12 10 9 9 8 6 4 4 4 4 5 4 5 5 4 4 5 5 5 5 5 5 6 10 12 10 10 11 10 10 10 9 9 9 7 7 8 4 3 2 1 2 1 1 1 2 3 2 3 3 3 2 1 1
9 11 11 10 11 17 22 23 23 23 27 31 33 33 31 30 29 28 27 25 23 20 19 18 18 19 19 19 16 15 15 14 12 10 9 8 6 4 3 4 5 5 6 6 5 4 5 5 5 5 5 5 5 5 7 8 8 8 8 8 7 6 7 9 9 7 8 8 6 5 4 2 3 2 1 0 1 2 2 1 2 2 2 2 4
5 6 8 9 12 17 21 24 25 25 27 31 33 32 31 31 31 30 28 26 24 22 20 20 21 21 22 22 20 18 17 15 13 11 9 7 6 5 4 6 5 5 6 6 6 5 5 5 4 4 5 5 5 6 6 5 5 5 3 5 7 5 6 9 11 12 10 7 6 7 6 6 6 4 2 1 1 1 1 2 1 2 2 4 6
6 7 8 8 12 17 22 26 27 27 27 30 32 32 33 33 32 30 28 27 26 23 22 21 23 24 24 23 21 20 18 16 14 11 9 8 7 7 6 6 5 5 5 5 5 5 4 3 3 3 5 6 5 7 8 7 5 4 3 4 5 5 6 9 11 14 12 8 7 7 6 5 4 3 2 2 2 1 2 3 4 4 5 7 8
7 8 9 9 12 18 23 27 27 28 30 32 33 34 33 32 30 29 29 29 27 24 22 22 23 25 25 24 22 20 17 15 14 12 11 10 9 8 7 6 5 4 4 5 6 6 4 3 3 3 5 6 7 8 9 9 7 5 3 4 4 5 6 5 6 9 7 6 6 6 5 4 3 3 3 3 3 2 0 2 4 7 8 10 11
6 6 6 8 12 17 21 25 26 27 30 32 32 33 32 30 30 31 31 29 27 25 23 23 25 26 27 26 24 21 18 17 15 14 12 11 10 10 8 6 5 5 5 6 8 8 7 5 4 4 6 7 8 8 9 9 8 7 5 4 4 4 4 3 3 4 3 3 4 5 4 5 4 3 3 3 3 3 2 1 3 5 5 8 12
6 5 5 6 10 14 18 22 23 23 25 27 29 30 30 30 31 32 31 28 26 24 23 25 27 29 29 27 26 23 21 20 19 16 14 13 12 10 9 7 6 6 7 8 10 10 8 7 6 6 7 7 7 8 8 7 7 7 6 6 6 5 6 6 5 5 5 5 5 4 5 6 5 4 5 4 3 3 3 1 2 4 3 5 9
6 6 6 7 9 11 15 18 19 20 22 24 26 28 29 29 29 30 27 23 21 22 24 26 29 31 30 28 26 24 23 22 21 19 17 15 13 12 10 9 9 9 10 10 11 10 8 7 6 7 8 8 8 8 8 7 7 7 7 8 8 8 8 8 8 9 9 9 9 8 8 8 7 7 6 5 5 4 4 3 3 4 2 3 5
6 6 6 6 7 9 13 17 18 20 22 23 24 25 26 27 26 25 22 22 25 26 28 29 29 30 28 27 26 24 23 22 20 20 20 17 16 14 12 11 12 12 12 11 11 9 7 6 7 9 9 9 9 9 8 8 8 8 8 8 8 8 8 8 9 11 10 10 11 9 8 8 7 7 5 5 6 6 7 6 4 3 2 2 5
6 6 6 6 6 9 13 17 19 20 21 22 24 23 24 25 24 24 24 28 31 32 33 32 29 28 27 26 26 24 23 21 18 19 20 19 17 16 14 13 14 14 13 12 11 9 7 7 9 10 10 10 9 9 8 7 7 8 8 8 8 7 6 6 8 9 9 9 8 7 7 7 7 6 4 5 5 5 8 7 4 3 3 4 6
6 5 4 3 6 10 13 16 18 20 21 22 23 23 24 25 25 27 29 31 33 35 33 28 26 26 27 27 26 24 22 19 17 18 19 19 18 16 15 14 14 14 14 13 12 10 9 10 11 11 11 11 10 10 9 8 8 8 8 8 8 6 6 7 7 7 7 7 6 6 6 7 7 6 5 6 6 6 8 8 7 4 3 4 5
7 7 5 3 4 9 13 15 18 20 22 23 23 24 25 25 26 29 31 33 35 35 30 23 23 26 26 28 27 24 22 19 18 18 18 18 18 16 16 15 13 14 15 15 13 12 12 12 11 11 11 10 10 10 10 10 9 9 9 8 8 7 6 7 7 7 7 8 8 7 8 9 9 9 9 9 8 8 8 8 8 7 4 3 4
7 7 6 3 4 6 10 15 18 20 23 24 24 25 26 26 27 29 32 33 32 30 28 25 27 27 26 28 27 25 24 21 18 19 18 18 17 15 15 15 14 14 16 16 15 14 13 13 12 12 11 10 11 11 10 10 9 9 9 9 9 8 7 7 7 7 8 8 9 9 9 11 12 11 11 11 9 9 9 8 9 8 7 4 2
6 6 6 5 5 6 8 12 16 20 22 24 24 25 25 26 28 29 30 27 22 21 23 25 27 27 27 29 27 25 25 20 18 19 19 18 18 17 16 17 15 15 16 17 17 16 15 14 14 13 12 11 11 11 10 10 10 9 9 9 10 9 8 9 8 7 8 8 8 9 9 10 10 10 10 9 8 8 8 8 7 7 8 6 3
5 5 5 4 5 7 8 10 13 16 18 19 20 21 22 23 24 25 23 21 21 22 24 27 26 24 26 26 25 25 23 16 15 20 21 19 19 18 18 18 17 16 17 17 17 17 16 16 15 13 12 11 11 10 9 8 9 10 10 10 10 9 9 9 8 6 7 7 8 9 8 8 7 7 7 6 6 7 6 6 6 5 7 7 5
4 4 3 3 4 6 7 7 8 10 12 13 14 16 18 19 19 19 16 17 25 27 25 23 17 13 16 18 20 24 22 15 16 23 24 22 19 17 18 19 18 18 18 18 17 16 17 18 18 16 14 13 12 11 9 8 9 9 8 9 9 8 8 8 8 6 6 5 6 7 7 7 6 4 4 4 5 6 6 7 6 5 6 7 7
3 3 3 3 3 3 5 7 8 8 9 11 12 13 14 15 15 15 13 14 21 23 20 20 17 13 18 22 22 25 24 17 20 26 26 25 22 18 18 18 19 20 20 19 19 18 17 17 19 18 17 16 15 13 12 11 10 9 8 7 7 7 6 6 6 6 6 5 5 5 5 5 5 4 3 2 2 4 5 6 6 5 6 8 8
3 4 5 4 1 3 6 7 8 8 8 10 11 11 11 12 12 12 11 12 17 20 22 26 26 24 26 25 23 27 26 22 23 27 28 28 25 21 19 20 21 21 21 21 20 20 18 18 19 20 19 18 16 15 14 13 12 11 9 9 8 8 7 7 6 5 5 6 5 4 2 2 2 2 3 2 1 2 3 3 5 5 6 8 9
4 4 3 2 4 4 4 4 4 3 3 4 7 9 9 10 11 11 12 14 16 18 22 27 29 30 28 24 21 25 26 25 25 26 27 27 27 25 23 23 24 23 23 22 21 21 19 18 19 19 20 19 17 16 15 14 13 12 12 11 10 10 9 8 8 7 6 6 6 4 3 2 2 1 1 2 1 1 2 2 4 4 6 7 9
3 2 2 4 3 2 4 2 2 2 2 1 1 3 6 8 10 11 13 16 16 15 18 24 29 31 28 22 19 21 23 23 24 23 23 24 25 26 26 25 25 26 25 24 23 22 21 20 20 19 20 20 19 18 17 15 14 13 12 12 12 11 11 10 9 9 8 7 7 6 5 4 3 3 3 2 2 1 1 1 2 3 4 6 8
5 5 5 4 3 4 5 3 2 2 3 3 2 1 2 6 10 11 12 14 15 14 14 20 27 29 26 20 17 17 18 19 21 21 22 22 21 21 24 27 28 28 26 24 21 19 18 19 20 20 20 19 19 19 17 16 15 14 13 12 12 12 11 11 11 10 10 9 9 8 7 7 6 6 5 4 4 3 3 2 1 2 3 4 6
7 6 5 4 4 4 5 4 2 1 2 2 2 2 2 4 8 10 11 12 13 13 14 18 24 25 21 16 14 15 16 17 19 20 21 21 19 16 18 22 26 28 28 26 24 20 18 18 20 21 22 20 18 18 17 15 14 14 14 13 13 13 13 13 12 12 12 12 12 11 10 10 10 9 8 7 6 6 5 4 3 3 3 4 6
6 5 5 5 4 4 6 6 5 4 2 1 1 2 2 3 5 8 10 11 11 13 14 17 20 21 18 15 14 15 15 15 15 16 17 19 21 19 19 20 22 23 23 24 26 24 22 22 22 23 24 24 21 19 17 16 15 15 16 15 15 15 16 16 15 14 14 14 13 13 13 13 13 12 11 10 9 8 7 6 5 5 5 6 7
3 3 3 4 4 4 5 7 7 6 5 4 3 3 3 3 4 5 8 10 12 13 15 16 17 17 16 16 15 14 13 11 11 11 13 18 23 24 24 24 25 25 22 23 26 27 27 28 26 24 24 27 25 21 19 18 17 17 18 18 17 17 18 18 18 17 17 17 16 16 16 16 16 15 13 12 10 9 8 7 7 7 8 8 9
4 4 3 2 1 1 1 3 5 7 8 8 6 5 5 5 4 4 6 9 11 13 15 15 15 15 15 16 15 13 12 11 10 12 14 18 23 25 24 24 27 28 27 27 30 30 30 29 26 24 24 27 27 24 21 20 20 21 21 21 21 21 21 21 20 20 20 19 19 19 19 19 18 16 15 13 11 10 9 8 8 8 8 8 9
7 7 7 6 5 5 7 7 4 1 4 8 9 8 6 6 6 5 5 7 8 10 13 14 14 14 14 14 14 14 14 12 13 16 17 19 22 23 23 25 27 30 30 30 30 30 29 27 24 24 24 25 26 25 21 20 20 20 20 20 21 22 22 22 22 23 23 23 22 22 22 21 19 18 17 15 13 11 10 9 8 8 8 8 9
9 9 9 8 8 10 12 14 13 12 8 1 5 7 8 6 6 6 5 5 6 7 10 12 13 14 14 14 14 15 15 14 15 17 18 19 22 23 23 24 26 29 29 26 24 25 25 23 20 19 20 22 25 24 20 17 16 16 16 17 18 19 20 20 22 23 25 26 25 24 24 22 21 19 17 15 13 11 10 8 7 7 8 8 8
9 9 10 10 9 11 13 16 18 18 15 11 7 1 6 7 6 5 5 4 4 5 7 8 10 12 13 14 15 16 15 15 16 17 18 20 22 24 24 25 25 26 25 23 23 24 23 20 19 19 19 20 19 16 13 11 11 10 12 13 15 17 18 19 20 21 23 25 26 25 24 23 21 20 17 15 12 10 8 8 7 7 7 7 7
7 7 8 8 9 11 14 16 18 20 20 16 12 8 2 4 6 6 6 6 5 5 5 5 5 6 7 8 11 15 15 15 16 16 16 17 19 21 22 24 24 23 21 22 24 23 20 18 18 19 17 13 9 7 6 6 7 8 9 10 12 14 15 17 18 19 20 22 23 23 23 22 20 18 15 12 10 9 8 7 7 6 6 6 7
7 7 6 8 10 14 17 18 18 20 22 20 18 15 10 4 3 5 5 6 6 6 5 5 4 4 5 6 8 10 12 14 14 13 12 11 12 13 15 16 16 16 15 16 17 16 14 14 14 14 12 9 6 5 4 5 6 7 7 9 10 11 12 14 15 17 18 19 20 20 19 20 19 16 13 11 9 8 7 7 7 7 7 7 8
8 8 8 10 12 14 17 20 21 22 23 22 21 20 17 12 5 3 3 3 4 5 4 4 5 6 7 8 8 8 10 12 11 11 11 10 9 9 10 10 10 10 10 9 9 9 9 9 9 10 9 8 6 4 5 5 5 5 5 7 9 9 10 11 13 14 14 15 15 15 15 17 16 14 12 10 8 8 8 8 8 8 8 9 9
7 8 11 14 15 13 13 16 18 20 21 21 22 21 20 18 13 6 3 1 2 2 2 3 5 7 9 10 10 10 10 11 11 10 11 9 8 8 7 7 6 6 6 5 4 4 4 4 6 8 8 8 7 6 6 6 6 5 5 5 6 7 7 7 7 7 7 8 8 10 13 14 13 12 10 9 9 9 9 9 9 8 8 7 6
10 12 14 18 19 17 15 15 17 19 20 19 19 20 21 19 16 13 9 6 4 5 4 3 5 7 9 10 11 12 12 12 11 10 9 8 7 6 5 4 4 3 3 2 2 2 1 2 4 5 6 7 8 7 7 7 6 6 6 5 3 3 3 3 3 3 5 7 8 10 11 11 10 9 9 9 9 9 9 8 8 7 6 5 4
14 15 17 18 19 18 16 16 16 17 18 17 15 14 17 19 17 14 12 12 12 10 7 3 3 5 8 10 11 14 15 14 12 10 8 8 7 5 4 3 2 1 1 0 1 1 2 3 4 5 6 7 8 8 7 7 6 5 5 4 1 2 4 6 7 8 9 9 9 8 8 8 8 8 7 7 7 6 6 6 6 6 6 6 6
16 17 16 16 17 16 16 16 16 16 18 18 16 13 14 16 16 13 12 13 13 10 8 7 7 4 4 8 11 14 16 15 13 11 9 7 6 4 2 2 2 1 1 1 2 2 3 4 5 6 7 8 8 9 8 6 5 4 4 2 2 4 7 9 9 9 9 8 7 7 6 6 6 5 4 4 4 4 4 4 4 5 6 7 8
16 17 17 17 17 17 16 16 16 16 16 17 17 15 13 14 16 15 13 12 10 8 8 8 7 5 3 2 6 12 17 16 14 11 10 9 7 4 3 4 4 3 3 3 3 3 4 5 7 8 9 9 9 8 7 5 4 4 3 3 4 7 9 10 10 9 9 8 7 6 5 4 3 3 2 1 1 2 3 3 4 5 5 6 8
15 16 18 18 18 17 16 16 16 16 16 16 16 15 14 15 16 17 16 13 10 10 10 9 8 6 4 5 4 5 12 15 14 12 11 11 9 7 6 7 6 6 6 5 4 4 5 6 8 9 10 10 8 7 6 5 4 4 4 5 6 8 9 10 10 9 8 7 7 6 5 4 3 2 1 0 1 2 2 3 4 4 5 6 7
17 17 18 18 18 18 18 18 18 17 16 15 14 14 15 15 16 18 18 16 14 12 11 10 10 8 8 8 6 5 7 10 11 11 10 9 9 9 10 10 11 10 9 8 7 5 5 6 7 8 10 9 8 7 7 6 6 7 7 7 7 7 8 8 8 8 8 7 7 7 6 5 3 2 1 1 2 3 3 4 4 4 5 5 6
19 19 18 17 17 18 18 18 18 17 16 15 13 13 13 13 14 16 17 19 19 16 13 12 12 11 11 10 10 9 9 10 10 9 8 7 7 7 9 12 13 13 11 10 9 7 6 6 6 7 8 8 8 8 8 8 8 8 9 8 7 7 7 7 7 8 8 8 8 7 5 3 2 1 2 3 3 3 3 3 3 3 4 6 7
22 22 21 19 18 18 18 19 18 17 17 16 15 13 13 12 13 14 14 15 17 17 15 14 14 14 15 14 13 13 12 11 10 10 9 7 5 5 5 8 11 12 11 10 9 8 8 7 7 7 7 8 9 10 10 10 10 9 9 8 7 6 6 6 6 7 9 9 8 6 3 1 1 2 2 1 2 2 2 2 2 3 5 7 8
22 23 24 23 22 21 21 21 20 19 18 19 18 15 15 15 16 16 15 13 13 14 15 15 16 16 16 14 14 17 17 16 15 14 12 11 9 7 5 6 8 9 10 10 10 9 9 9 8 7 7 9 11 12 12 11 11 10 8 7 7 6 5 5 7 9 9 8 6 4 2 2 2 3 4 4 4 4 4 3 3 5 7 8 10
20 22 23 24 24 23 23 22 22 21 19 19 19 18 17 18 19 19 18 16 14 12 11 11 13 15 17 16 15 17 20 19 19 19 18 16 15 12 9 7 7 7 8 9 9 10 10 9 8 8 9 11 11 11 11 11 10 9 8 8 7 7 7 7 8 9 8 7 6 5 5 6 7 7 6 5 5 4 4 4 5 7 8 10 11
19 21 23 24 23 23 22 23 24 23 21 19 19 19 19 19 19 20 19 18 16 15 13 12 12 12 13 14 14 16 18 17 16 16 16 15 15 13 11 10 10 9 9 9 10 11 11 10 9 9 10 10 11 12 13 12 11 10 10 9 8 8 8 8 9 9 9 8 9 9 9 8 8 7 5 4 4 4 5 6 7 9 11 12 13
21 22 23 23 23 23 23 24 25 26 24 22 22 22 21 21 21 20 20 19 18 17 17 17 16 14 12 11 11 12 14 15 14 14 14 13 13 12 13 13 12 11 11 11 12 13 13 12 12 12 12 12 14 17 17 15 14 13 12 11 10 9 9 8 8 10 11 11 11 11 9 7 5 5 5 5 5 6 7 9 10 12 14 14 15
22 23 22 22 23 24 25 26 27 27 26 25 26 26 24 22 20 20 19 19 19 19 19 19 18 17 16 15 14 12 12 13 14 15 15 14 13 13 13 13 13 13 12 12 13 14 14 13 12 13 14 15 17 19 18 16 15 14 12 11 11 10 9 9 9 11 13 13 12 9 7 6 5 6 6 7 8 9 10 12 14 15 16 16 17
22 23 23 23 24 24 25 27 28 27 26 27 28 29 27 24 21 20 19 19 21 22 22 21 20 19 19 18 17 17 15 14 13 14 14 14 13 13 13 13 13 13 14 14 13 11 11 11 12 12 13 13 13 15 16 16 15 14 12 11 11 9 8 9 11 12 12 11 10 8 7 7 7 7 8 9 11 12 14 16 17 17 18 18 19
22 22 23 24 24 24 25 26 27 26 25 27 28 30 30 29 26 23 20 19 20 22 24 24 22 21 21 20 19 19 18 17 15 14 13 13 12 11 11 12 12 13 14 15 13 10 8 9 10 12 14 13 10 11 15 17 16 15 14 12 11 9 9 11 12 11 11 10 9 8 9 8 7 7 8 10 11 13 15 17 18 18 18 19 21
Wind_Direction
165 170 179 182 183 186 192 199 196 192 190 187 184 184 182 181 181 181 181 181 179 176 173 173 176 179 176 166 159 158 163 167 164 170 176 170 175 178 169 158 160 168 175 190 201 203 212 216 215 219 228 232 231 229 226 226 226 219 203 190 183 174 165 168 175 170 163 145 131 132 134 123 112 117 128 138 157 175 201 221 229 232 232 230 239
142 162 170 173 176 182 191 195 191 184 182 184 185 181 178 177 174 172 174 176 174 173 173 174 178 182 179 171 166 164 162 159 155 153 146 140 141 139 138 130 131 140 147 159 165 173 197 206 209 218 226 229 230 230 230 225 219 214 199 179 173 173 166 169 176 171 162 135 126 109 78 105 120 112 103 105 130 157 166 167 189 208 216 221 230
158 167 164 169 172 175 180 183 185 184 179 180 181 177 173 171 169 168 171 174 175 177 178 177 178 183 183 176 173 172 167 164 163 159 154 155 157 162 177 169 158 151 141 137 128 129 162 178 176 190 212 225 224 217 222 223 209 198 194 182 170 164 158 167 180 184 192 152 117 71 36 42 27 53 73 84 97 134 163 159 148 160 175 193 208
170 173 168 172 172 171 172 173 177 178 175 174 173 172 171 170 170 170 172 175 178 181 182 179 178 182 182 176 174 172 165 164 164 163 166 171 177 191 215 225 210 189 164 147 129 118 146 165 163 166 181 197 205 209 213 218 210 196 193 190 181 175 166 169 181 187 195 178 126 87 76 81 63 348 27 82 94 109 147 170 166 167 173 178 217
171 177 177 176 173 169 168 171 174 175 173 172 173 174 173 173 175 176 176 176 177 182 184 181 179 181 178 171 170 166 160 162 166 167 172 180 190 203 222 223 207 199 186 164 142 122 139 153 157 160 163 167 176 196 210 218 220 209 203 196 188 195 197 189 186 185 191 196 176 134 105 78 201 250 11 83 107 111 132 170 177 184 191 183 333
184 184 178 169 165 163 167 173 176 178 177 174 175 178 177 178 179 179 176 175 178 183 186 187 186 186 181 175 175 173 167 171 178 177 177 184 193 202 200 176 175 186 182 172 163 140 137 146 148 151 145 137 138 154 186 207 210 207 213 208 196 204 212 203 194 192 199 200 181 149 139 148 171 165 132 72 33 97 119 156 193 214 217 290 324
203 195 179 166 164 162 168 177 180 183 181 176 177 179 179 180 181 179 176 176 181 184 187 190 190 189 188 186 187 187 180 179 185 186 181 180 179 180 169 149 148 162 164 170 176 155 135 133 135 149 147 127 112 115 129 149 172 189 206 209 214 219 223 220 202 194 203 193 157 141 133 127 129 129 136 121 53 57 49 66 59 331 320 333 338
188 193 184 174 174 170 172 179 183 184 181 178 178 179 181 182 180 178 177 178 184 187 188 191 190 188 188 189 189 191 188 181 182 184 178 173 170 167 164 153 143 143 147 162 178 171 154 126 104 126 155 140 118 114 117 118 133 155 160 182 212 210 212 227 206 191 197 190 162 147 133 125 111 103 134 136 128 133 352 30 46 39 39 32 21
183 191 187 180 181 178 177 179 183 184 182 182 182 182 183 182 179 179 181 183 187 190 189 190 192 188 187 188 186 187 187 177 175 178 173 171 170 166 165 160 149 141 138 149 166 172 171 149 106 110 140 139 129 122 116 112 111 114 138 168 182 181 191 219 205 191 198 196 181 166 143 122 90 96 131 125 105 104 339 343 26 45 55 49 43
180 187 189 185 184 181 179 180 184 187 186 185 185 186 184 182 182 183 185 187 190 191 190 190 191 189 188 187 183 181 178 170 169 173 172 174 175 170 168 164 157 151 146 150 157 155 148 142 131 124 126 127 129 125 119 114 107 103 111 137 153 156 155 151 162 174 180 178 186 187 161 132 109 109 135 131 105 96 107 111 33 46 46 42 56
167 158 157 164 171 177 178 180 184 188 189 188 188 188 187 185 185 186 188 190 190 191 193 194 193 192 191 188 184 179 174 170 170 175 178 180 181 178 177 173 163 156 153 153 152 149 142 138 137 138 134 130 130 131 133 130 120 118 122 124 124 117 112 119 124 127 129 120 120 146 150 140 130 120 120 122 115 101 102 105 43 54 57 42 68
151 142 143 144 152 168 175 178 181 186 190 192 192 191 190 189 188 186 185 183 182 184 189 192 193 193 193 191 186 181 177 174 174 180 185 185 187 187 187 184 172 162 160 158 155 153 152 149 152 154 149 144 141 141 142 143 141 140 137 128 120 111 104 105 107 111 121 118 111 116 124 124 117 110 107 95 88 87 93 94 44 38 49 31 63
144 140 147 153 154 164 171 176 181 186 192 195 196 195 193 191 189 181 174 178 183 185 187 191 192 193 194 193 189 185 181 177 177 184 187 189 192 194 195 189 179 171 168 167 162 160 162 159 157 158 157 154 152 151 149 147 149 149 145 138 127 119 112 107 108 110 114 114 112 113 114 112 103 99 97 89 88 83 80 83 58 43 49 13 31
134 136 152 167 168 168 174 179 184 187 192 197 199 198 195 191 186 177 175 185 189 187 186 189 191 193 196 197 192 187 184 179 180 188 190 191 195 198 200 194 184 179 176 175 171 167 168 156 145 147 149 148 146 148 152 154 158 158 156 152 143 137 134 129 122 117 114 110 111 110 104 97 89 82 76 78 83 77 74 70 59 60 49 31 39
106 105 115 139 163 175 181 182 185 188 193 199 200 199 196 190 184 180 182 188 189 187 184 185 192 194 196 199 194 189 188 184 185 191 192 194 197 201 202 196 189 184 181 181 178 176 170 153 144 142 138 136 134 133 136 138 144 150 153 154 149 147 148 141 131 123 117 107 102 99 94 87 76 71 69 69 70 68 68 62 54 65 43 18 30
101 94 81 72 145 177 186 185 187 190 195 200 200 199 197 189 184 185 188 189 189 186 175 177 200 202 198 199 195 189 189 186 189 194 196 198 200 204 204 199 195 189 185 185 185 184 176 160 151 146 139 135 131 130 132 133 135 137 139 141 137 138 145 142 135 127 116 103 90 84 88 85 77 77 79 77 76 69 64 56 50 65 76 30 7
109 111 119 131 136 157 181 186 189 193 196 201 201 201 198 190 186 188 191 191 188 179 170 180 204 206 200 199 194 190 190 188 192 197 199 203 205 209 210 205 203 197 191 188 187 186 181 171 164 156 149 143 137 135 136 141 144 141 138 137 133 135 141 139 138 136 126 111 93 85 88 87 83 83 82 80 79 70 61 56 47 54 67 78 80
113 115 124 135 127 131 159 179 192 198 201 203 203 204 201 194 192 192 192 188 173 164 174 192 205 203 200 199 194 193 192 189 197 202 203 206 208 212 215 211 208 204 197 193 190 190 188 181 176 171 164 158 150 145 143 147 152 148 142 139 134 136 139 137 138 139 134 124 104 94 93 92 90 89 85 79 73 63 55 54 49 45 48 60 99
106 109 117 130 137 142 150 168 191 202 207 209 206 204 201 195 195 194 191 180 169 176 193 202 201 197 196 194 191 195 193 188 202 210 208 209 211 215 218 215 213 209 203 198 196 195 193 189 187 183 176 171 167 161 155 157 163 159 152 147 143 140 140 137 136 138 135 129 115 104 97 96 97 95 91 78 62 57 50 48 49 41 39 42 58
108 116 127 134 135 144 150 164 189 199 204 209 208 207 202 196 195 196 195 186 183 191 199 201 196 189 192 194 195 197 193 188 207 215 214 213 213 217 221 220 217 214 209 204 203 202 198 195 194 192 186 180 178 176 174 172 173 172 165 159 153 149 149 145 141 144 147 143 130 115 102 96 96 98 97 83 64 61 56 55 57 50 48 44 42
93 112 100 72 88 144 173 188 199 198 196 197 201 205 203 202 203 204 205 194 188 189 194 201 206 206 205 207 207 201 194 198 213 217 217 217 216 216 221 225 223 219 215 210 209 208 206 202 199 198 195 190 187 185 185 184 181 178 176 173 170 165 171 168 154 151 158 165 157 133 116 103 99 94 87 88 78 64 57 61 62 48 44 38 29
43 60 46 20 325 211 194 192 191 189 191 195 199 203 204 206 210 211 204 188 183 184 190 200 205 204 205 209 209 202 201 207 213 216 217 218 219 217 218 225 227 222 220 217 215 213 212 210 204 202 201 199 198 195 193 193 191 188 186 186 186 184 189 193 185 176 173 178 180 173 161 133 112 89 67 66 65 55 47 49 49 34 25 23 15
40 43 26 308 248 209 173 169 169 161 173 194 204 211 213 209 207 206 198 187 182 182 188 195 196 194 198 206 209 206 207 207 207 214 219 220 222 222 220 225 228 226 224 222 220 218 218 217 212 207 205 204 205 203 201 201 200 199 198 197 199 200 201 206 205 201 198 197 202 206 210 205 193 204 34 31 15 27 36 36 39 26 13 12 8
104 127 202 213 201 127 90 79 36 24 19 13 218 210 204 198 196 195 192 192 190 185 184 188 188 190 198 207 211 209 210 208 205 213 220 221 226 228 225 226 229 229 228 227 226 225 224 224 221 216 212 211 212 211 209 208 207 209 209 206 208 209 212 217 217 215 215 220 227 228 229 235 233 237 257 282 289 291 310 9 28 15 7 6 4
158 169 182 173 129 84 72 63 22 351 354 12 33 76 163 180 189 192 193 196 195 188 182 181 182 188 198 208 210 208 211 212 210 214 218 219 227 235 233 229 228 228 228 229 232 236 239 237 233 228 222 218 219 219 218 219 219 220 222 223 224 223 224 226 226 226 225 229 236 239 242 247 245 245 251 257 261 262 268 280 323 355 1 1 359
162 167 166 153 130 119 120 127 156 233 326 7 41 73 113 163 185 196 202 202 195 188 184 182 183 190 197 203 204 205 210 214 216 218 217 218 227 245 250 241 233 229 227 228 233 244 256 254 248 245 239 232 227 225 226 228 231 233 233 235 237 239 240 239 236 235 233 235 240 242 243 246 249 251 249 249 256 259 264 275 289 315 332 340 348
164 163 156 152 147 145 146 149 159 171 166 119 81 91 117 155 180 197 206 203 193 190 191 187 188 195 199 197 199 206 212 216 218 218 220 223 230 244 258 259 252 243 236 232 233 238 242 242 244 248 251 251 243 234 233 235 237 242 243 242 244 246 247 248 247 245 242 242 245 245 246 246 249 252 248 245 249 253 260 270 279 297 308 317 332
131 137 148 153 156 167 169 162 157 156 158 158 153 151 151 161 181 198 205 200 190 188 192 191 190 193 195 196 203 208 207 206 209 210 217 224 229 236 246 252 254 254 252 247 242 238 235 236 241 247 256 263 259 248 245 247 249 251 251 251 253 253 253 253 254 253 250 247 247 247 249 249 250 252 250 246 247 251 258 262 272 288 296 306 323
39 25 12 19 13 289 232 186 172 162 159 158 155 155 155 158 175 192 201 200 196 190 190 191 191 192 195 201 203 193 183 190 204 204 208 219 223 227 233 239 243 246 246 245 243 240 235 236 242 248 255 265 267 259 252 253 255 257 259 259 260 260 259 260 260 258 255 253 251 249 249 249 248 249 249 246 245 249 255 258 267 279 287 302 320
28 25 19 18 14 7 3 354 340 291 170 159 153 155 158 159 166 178 196 207 209 204 197 197 196 190 192 199 197 187 184 191 198 196 198 208 213 216 222 229 233 236 236 237 238 238 237 237 242 247 251 259 264 260 255 255 258 263 266 266 265 263 263 264 263 260 256 256 255 252 250 248 246 244 243 239 238 241 247 254 266 274 284 304 319
26 30 29 29 30 28 21 12 4 352 336 319 143 149 157 161 161 164 174 194 211 214 210 209 206 195 193 199 198 195 194 191 191 195 197 201 205 209 214 218 223 227 229 229 229 231 233 235 238 245 254 257 257 257 259 263 266 268 269 268 266 266 266 266 265 261 258 258 257 253 250 247 243 239 233 230 231 236 242 252 263 272 284 302 316
30 32 33 32 30 31 30 24 20 14 3 352 344 9 152 151 155 161 161 168 194 209 212 217 215 207 207 210 206 204 204 200 200 206 209 210 212 213 214 217 222 225 224 224 229 233 236 239 242 249 256 256 254 258 266 272 276 276 274 272 271 272 272 272 271 268 264 260 257 253 250 244 238 232 226 224 226 231 240 250 258 269 285 301 311
34 32 33 31 22 22 26 25 24 24 21 15 3 351 350 140 141 145 151 157 167 178 187 198 203 201 203 205 203 205 209 209 207 209 213 216 219 220 220 222 226 228 227 228 234 241 245 245 242 242 246 249 253 264 278 287 290 290 287 284 282 280 278 277 277 275 271 265 258 253 247 236 226 222 220 222 226 232 241 248 258 272 284 290 291
30 30 28 27 21 15 13 12 12 13 14 16 19 15 1 343 158 149 144 154 165 168 170 176 184 193 192 184 185 191 194 193 194 196 196 196 202 207 211 214 218 222 225 227 231 236 237 235 233 233 238 242 244 257 288 304 300 296 293 289 286 282 277 274 274 275 273 268 261 254 241 224 213 211 215 221 227 236 246 255 267 272 271 274 278
21 19 11 12 17 16 13 11 7 5 6 5 8 14 14 6 345 225 188 161 172 178 178 187 203 218 220 210 199 190 184 182 183 184 182 179 180 181 183 188 196 202 208 212 217 221 223 227 233 239 243 245 247 271 307 318 320 319 307 293 285 282 276 270 270 272 271 267 260 249 231 215 207 206 212 219 227 238 249 256 259 260 264 271 275
18 17 9 8 10 10 13 13 6 5 7 2 356 358 4 8 7 343 294 283 257 245 247 238 221 212 210 210 208 202 192 184 181 179 177 175 175 174 172 174 176 178 183 183 178 187 207 223 235 244 249 255 267 284 298 307 319 333 332 313 291 284 280 272 268 269 263 252 240 222 207 200 200 205 211 220 231 236 240 245 249 257 265 269 271
12 13 12 13 14 13 11 7 2 3 4 358 351 346 346 354 4 6 9 23 19 2 342 284 246 220 207 201 200 201 197 188 182 183 187 186 182 180 178 173 164 156 155 164 169 175 221 249 256 264 270 272 274 279 287 295 305 323 336 334 304 269 251 221 201 189 187 184 180 186 193 193 196 205 213 221 229 233 235 241 249 253 255 258 273
2 5 7 10 12 13 11 4 360 0 0 357 350 342 338 338 341 349 2 6 3 4 8 348 281 239 227 219 207 199 195 193 195 198 196 190 181 178 182 184 191 193 145 130 279 287 295 290 282 275 276 279 277 277 281 289 299 316 330 334 303 195 175 171 169 166 168 172 171 176 189 197 201 204 211 219 228 238 242 245 251 256 262 277 290
358 1 4 5 5 4 2 1 359 355 354 353 348 339 334 329 327 330 336 335 333 341 1 7 3 347 263 241 229 214 203 200 203 204 197 185 173 170 199 237 259 258 242 264 284 294 303 300 288 274 267 264 264 265 266 269 276 292 305 310 238 192 177 174 177 175 173 175 178 181 188 198 202 203 211 226 240 257 262 261 265 274 284 294 299
348 350 350 351 352 353 352 353 356 354 351 351 347 339 330 324 323 322 319 316 304 297 309 314 313 329 348 299 248 228 219 213 208 204 199 193 185 185 232 255 258 261 269 273 275 289 301 302 295 285 273 263 257 254 248 242 242 252 252 230 209 199 188 183 184 184 182 179 179 182 182 183 190 188 197 239 274 286 286 284 287 294 303 306 307
333 335 337 337 337 340 339 336 338 342 344 347 346 337 323 314 311 307 306 308 301 292 296 291 274 269 286 308 309 236 218 215 211 209 208 206 204 212 233 244 241 240 248 252 253 272 294 303 303 294 281 268 256 245 235 225 213 206 209 208 204 200 195 192 188 186 187 183 174 167 159 151 152 150 133 21 327 322 317 318 321 324 326 322 321
325 326 329 331 328 327 325 322 324 327 329 335 340 335 325 315 305 299 299 304 304 297 293 290 280 261 241 239 237 210 198 200 201 202 204 206 213 223 231 233 230 230 232 231 232 247 269 287 298 295 282 266 245 228 221 213 200 194 196 202 203 200 199 201 198 191 183 171 158 151 145 139 138 131 93 355 340 342 341 339 338 337 336 333 330
324 323 323 323 320 318 318 317 317 317 316 320 324 323 323 320 311 304 301 299 298 295 288 283 277 259 236 227 228 219 204 197 197 197 197 197 200 210 222 227 225 223 220 218 223 233 243 252 266 273 267 249 225 209 204 200 198 198 199 201 204 203 203 208 206 191 174 159 150 148 147 140 118 14 335 333 337 339 339 344 345 341 339 335 329
324 323 324 322 313 308 311 312 311 310 307 307 308 306 305 306 308 310 308 301 296 293 286 280 273 259 247 244 242 234 224 217 213 208 206 208 206 203 212 220 220 218 215 214 215 219 223 228 235 244 244 229 210 199 194 194 196 198 198 199 201 200 198 197 185 166 157 154 154 157 166 188 346 354 359 10 34 45 49 45 24 354 341 334 329
326 327 329 327 320 314 312 308 307 305 301 300 301 295 286 286 292 299 304 305 303 298 288 279 273 264 257 253 241 230 229 232 232 232 239 247 252 252 244 231 226 225 223 219 215 214 217 218 219 221 215 198 189 187 187 187 188 190 189 189 190 184 177 169 155 147 148 151 152 156 150 122 102 100 100 97 91 83 69 42 9 347 338 334 334
330 330 329 327 325 322 318 313 309 306 302 300 298 289 280 280 285 288 290 294 295 294 292 285 275 264 260 259 246 228 223 223 224 229 236 240 241 245 246 241 243 245 242 233 223 217 216 216 212 204 192 181 178 182 184 183 182 183 181 178 176 166 154 149 144 141 143 143 137 132 124 116 112 107 100 92 80 63 35 5 353 348 345 345 344
320 320 320 319 319 317 315 313 309 307 307 307 301 292 284 283 284 284 284 284 280 276 280 286 285 274 263 257 245 231 226 224 220 217 216 215 218 224 228 232 238 244 243 236 226 219 217 214 207 198 193 193 196 194 189 184 184 183 178 172 166 156 147 143 137 133 134 134 130 125 119 114 109 100 88 71 52 32 13 3 359 354 349 347 343
312 312 312 311 310 307 305 304 302 302 306 307 302 297 292 289 287 285 283 278 269 265 267 271 274 276 274 269 257 242 235 236 234 227 221 218 220 225 230 235 240 243 243 239 232 227 222 213 203 197 194 197 201 200 196 194 194 190 182 172 164 155 148 142 137 135 135 133 131 127 119 109 94 75 60 45 34 24 13 5 359 352 348 344 340
308 308 307 304 302 300 298 296 294 295 298 298 296 295 293 291 289 285 282 277 272 267 264 262 262 264 266 268 270 266 256 247 241 237 234 231 231 232 236 239 241 243 246 247 245 243 236 220 208 206 203 200 202 204 203 200 196 192 187 179 168 159 152 145 141 142 141 137 133 124 106 83 62 50 45 38 27 16 7 1 357 354 351 348 345
305 305 303 300 297 296 294 292 292 293 293 291 289 289 287 287 286 284 283 282 277 270 264 260 258 256 256 258 261 265 266 262 252 241 231 224 223 225 227 230 232 235 237 237 237 241 239 226 217 217 214 212 213 211 202 194 188 184 182 177 167 159 153 145 143 145 143 136 126 106 81 68 63 57 47 35 22 11 3 360 357 356 355 353 350
305 303 301 299 298 296 294 293 294 295 293 288 286 284 283 283 283 282 283 284 281 271 262 257 255 254 253 252 252 254 256 256 252 240 224 212 208 210 216 222 226 228 228 224 216 212 218 222 223 220 213 209 211 206 195 187 180 176 174 170 162 156 148 144 148 149 137 120 107 94 85 78 72 60 44 29 19 10 4 0 357 355 355 355 352